#timestamp,LO_Frequency,Hit,StdDev 
1625655615.5,286046996.7,N
1625655635.3,286046997.6,N
1625655655.2,286046996.6,N
1625655675.9,286046997.8,N
1625655695.7,286046997.4,N
1625655715.6,286046996.9,N
1625655735.4,286046996.6,N
1625655755.2,286046997.2,N
1625655775.1,286046996.9,N
1625655776.0,286046996.9,N
1625655795.8,286046996.7,N
1625655815.7,286046997.1,N
1625655835.5,286046999.6,N
1625655855.3,286046997.4,N
1625655875.2,286046997.1,N
1625655895.9,286046996.7,N
1625655915.7,286046996.8,N
1625655935.6,286046997.1,N
1625655955.4,286046996.9,N
1625655975.3,286046996.6,Y
1625655995.1,286047000.6,P
1625655996.0,286047000.6,N
1625656015.8,286047001.1,N
1625656035.7,286047000.4,N
1625656055.5,286047000.5,N
1625656075.3,286047000.9,N
1625656095.2,286047000.9,N
1625656115.0,286047000.3,N
1625656115.9,286047000.3,N
1625656135.8,286046999.8,N
1625656155.6,286047000.9,N
1625656175.4,286047000.5,N
1625656195.3,286047000.3,N
1625656215.1,286047002.5,Y
1625656235.8,286046999.8,P
1625656255.7,286046999.9,N
1625656275.5,286047000.9,P
1625656295.3,286047000.7,N
1625656315.2,286047000.4,N
1625656335.0,286047000.4,N
1625656335.9,286047000.4,N
1625656355.8,286046999.9,N
1625656375.6,286047000.0,N
1625656395.4,286046998.1,Y
1625656415.3,286046998.2,P
1625656435.1,286046998.3,N
1625656455.9,286046998.9,N
1625656475.7,286046998.7,N
1625656495.5,286046998.6,N
1625656515.4,286047000.3,N
1625656535.2,286046998.7,N
1625656555.0,286046998.3,N
1625656555.9,286046998.3,N
1625656575.8,286046998.4,N
1625656595.6,286046998.9,N
1625656615.5,286046999.0,N
1625656635.3,286046999.0,N
1625656655.1,286046999.6,N
1625656675.9,286046996.6,Y
1625656695.7,286047000.5,P
1625656715.5,286047000.5,N
1625656735.4,286047000.0,N
1625656755.2,286047000.0,N
1625656775.1,286046998.2,Y
1625656776.0,286046998.2,P
1625656795.8,286047000.5,N
1625656815.6,286047002.2,N
1625656835.5,286047002.5,N
1625656855.3,286047000.0,N
1625656875.1,286047000.1,N
1625656895.9,286047000.0,N
1625656915.7,286046999.7,N
1625656935.6,286047000.4,N
1625656955.4,286047002.3,N
1625656975.2,286047001.6,N
1625656995.1,286047002.6,N
1625656996.0,286047002.6,N
1625657015.8,286047000.4,N
1625657035.6,286047000.6,N
1625657055.5,286047000.2,N
1625657075.3,286046999.8,N
1625657095.2,286047000.5,N
1625657115.9,286047000.3,N
1625657135.7,286047002.8,N
1625657155.6,286046999.8,N
1625657175.4,286047000.0,N
1625657195.2,286047002.8,N
1625657215.1,286047002.1,N
1625657216.0,286047002.1,N
1625657235.8,286047002.8,N
1625657255.7,286047000.6,N
1625657275.5,286047000.5,N
1625657295.3,286046999.7,N
1625657315.2,286046999.8,N
1625657335.0,286047002.4,N
1625657335.9,286047002.4,N
1625657355.7,286047000.1,N
1625657375.6,286047002.0,N
1625657395.4,286047002.2,N
1625657415.3,286047001.5,N
1625657435.1,286047001.4,N
1625657436.0,286047001.4,N
1625657455.8,286047003.5,Y
1625657475.7,286047001.3,P
1625657495.5,286047002.3,P
1625657515.4,286047002.6,P
1625657535.2,286047002.6,Y
1625657555.0,286046999.9,P
1625657555.9,286046999.9,N
1625657575.8,286046999.9,N
1625657595.6,286047000.0,N
1625657615.4,286047002.3,N
1625657635.3,286047002.2,N
1625657655.1,286047000.4,N
1625657675.9,286047001.1,N
1625657695.7,286047000.6,N
1625657715.5,286047000.8,N
1625657735.4,286046998.8,N
1625657755.2,286046998.9,N
1625657775.1,286046999.2,N
1625657776.0,286046999.2,N
1625657795.8,286046998.9,N
1625657815.6,286046997.3,N
1625657835.5,286046997.0,N
1625657855.3,286046999.1,N
1625657875.1,286046996.6,N
1625657895.9,286046997.3,N
1625657915.7,286046997.4,N
1625657935.5,286046997.9,N
1625657955.4,286046997.8,N
1625657975.2,286046997.6,N
1625657995.1,286046996.5,N
1625657996.0,286046996.5,N
1625658015.8,286046997.0,N
1625658035.6,286046998.0,N
1625658055.5,286046995.4,N
1625658075.3,286046996.1,N
1625658095.1,286046995.3,N
1625658115.9,286046998.0,N
1625658135.7,286046996.2,N
1625658155.6,286046996.0,N
1625658175.4,286046995.8,N
1625658195.2,286046995.6,N
1625658215.1,286046995.1,Y
1625658216.0,286046995.1,P
1625658235.8,286046996.6,N
1625658255.7,286046997.4,N
1625658275.5,286046995.1,Y
1625658295.3,286046999.0,P
1625658315.2,286046997.5,N
1625658335.0,286046995.8,P
1625658335.9,286046995.8,Y
1625658355.8,286046998.8,P
1625658375.6,286046999.9,N
1625658395.4,286046998.3,N
1625658415.3,286047000.7,N
1625658435.1,286047001.2,N
1625658455.8,286047000.8,N
1625658475.7,286047001.1,N
1625658495.5,286047000.7,N
1625658515.4,286046998.2,N
1625658535.2,286047000.8,N
1625658555.0,286046998.9,N
1625658555.9,286046998.9,N
1625658575.8,286046999.2,N
1625658595.6,286046999.3,N
1625658615.5,286046998.6,N
1625658635.3,286047000.2,N
1625658655.1,286047000.1,N
1625658675.9,286047000.7,N
1625658695.7,286047000.2,N
1625658715.5,286047000.1,N
1625658735.4,286047000.6,N
1625658755.2,286047002.6,N
1625658775.1,286047002.1,N
1625658776.0,286047002.1,N
1625658795.8,286047004.0,Y
1625658815.6,286047003.2,P
1625658835.5,286047003.2,N
1625658855.3,286047002.9,N
1625658875.1,286047005.5,Y
1625658895.9,286047003.9,P
1625658915.7,286047001.3,N
1625658935.6,286047004.1,P
1625658955.4,286047004.0,Y
1625658975.2,286046999.9,P
1625658995.1,286047000.5,N
1625658996.0,286047000.5,N
1625659015.8,286046999.7,N
1625659035.6,286046999.8,N
1625659055.5,286047002.3,N
1625659075.3,286047000.3,N
1625659095.2,286047002.5,N
1625659115.9,286047002.3,N
1625659135.7,286047001.7,N
1625659155.6,286047001.4,N
1625659175.4,286047004.4,Y
1625659195.3,286046999.7,P
